GW0525 Weather Reports


Display with metric or nautical units.
time (UTC)temp
F
wind
direction
speed
MPH
gust
MPH
rain 1hr
in
rain 24hr
in
rain mn
in
humidity
%
barometer
mb
20260904151605 71 170 19.0 27.0 0.00 0.00 0.00 73 1011.2
20260904150103 70 130 19.0 26.0 0.00 0.00 0.00 75 1011.1
20260904144608 68 125 15.0 23.0 0.00 0.00 0.00 77 1011.3
20260904143109 65 113 15.0 19.0 0.00 0.00 0.00 83 1011.3
20260904141607 64 120 15.0 18.0 0.00 0.00 0.00 84 1011.2
20260904140107 62 131 14.0 19.0 0.00 0.00 0.00 86 1011.2
20260904134610 61 121 13.0 19.0 0.00 0.00 0.00 88 1011.2
20260904133114 60 113 14.0 18.0 0.00 0.00 0.00 90 1011.2
20260904131618 58 126 11.0 15.0 0.00 0.00 0.00 91 1011.3
20260904130107 57 126 11.0 16.0 0.00 0.00 0.00 91 1011.3
20260904124612 57 130 10.0 13.0 0.00 0.00 0.00 92 1011.0
20260904123117 56 142 7.0 12.0 0.00 0.00 0.00 90 1011.1
20260904121606 57 138 9.0 12.0 0.00 0.00 0.00 90 1011.1
20260904120110 56 134 8.0 11.0 0.00 0.00 0.00 90 1011.0
20260904114608 56 123 9.0 11.0 0.00 0.00 0.00 88 1011.2
20260904113107 57 128 9.0 11.0 0.00 0.00 0.00 88 1011.1
20260904111620 56 127 8.0 9.0 0.00 0.00 0.00 89 1011.2
20260904110110 57 125 7.0 9.0 0.00 0.00 0.00 89 1011.3
20260904104605 56 98 5.0 7.0 0.00 0.00 0.00 90 1011.1
20260904103105 56 78 3.0 5.0 0.00 0.00 0.00 88 1011.5
20260904101618 57 77 3.0 4.0 0.00 0.00 0.00 86 1011.5
20260904100104 58 107 3.0 6.0 0.00 0.00 0.00 85 1011.7
20260904094607 57 119 4.0 7.0 0.00 0.00 0.00 85 1011.7
20260904093118 58 96 4.0 6.0 0.00 0.00 0.00 84 1011.5
20260904091605 59 75 1.0 3.0 0.00 0.00 0.00 82 1011.4
20260904090109 60 89 1.0 3.0 0.00 0.00 0.00 80 1011.4
20260904084603 61 94 2.0 3.0 0.00 0.00 0.00 78 1011.4
20260904083110 61 0 0.0 2.0 0.00 0.00 0.00 77 1011.5
20260904081607 61 125 0.0 1.0 0.00 0.00 0.00 77 1011.6
20260904080107 61 0 0.0 1.0 0.00 0.00 0.00 73 1011.5
20260904074607 62 45 2.0 4.0 0.00 0.00 0.00 67 1011.7
20260904073105 63 41 0.0 1.0 0.00 0.00 0.00 60 1011.7
20260904071605 64 0 2.0 3.0 0.00 0.00 0.00 56 1011.7
20260904070107 63 117 0.0 1.0 0.00 0.00 0.00 53 1011.7
20260904064602 63 0 0.0 0.0 0.00 0.00 0.00 50 1011.7
20260904063105 63 0 0.0 1.0 0.00 0.00 0.00 50 1011.6
20260904061607 64 0 0.0 3.0 0.00 0.00 0.00 45 1011.5
20260904060108 63 98 2.0 3.0 0.00 0.00 0.00 46 1011.5
20260904054604 63 0 0.0 2.0 0.00 0.00 0.00 47 1011.5
20260904053128 65 101 5.0 7.0 0.00 0.00 0.00 44 1011.4
20260904051607 64 0 0.0 4.0 0.00 0.00 0.00 46 1011.4
20260904050104 64 121 4.0 7.0 0.00 0.00 0.00 45 1011.4
20260904044611 65 97 6.0 12.0 0.00 0.00 0.00 44 1011.3
20260904043107 63 167 0.0 7.0 0.00 0.00 0.00 47 1011.3
20260904041604 63 38 6.0 13.0 0.00 0.00 0.00 48 1010.9
20260904040107 65 17 10.0 13.0 0.00 0.00 0.00 46 1010.7
20260904034610 66 0 0.0 5.0 0.00 0.00 0.00 45 1011.2
20260904033111 64 0 0.0 8.0 0.00 0.00 0.00 47 1011.3
20260904031602 65 37 6.0 12.0 0.00 0.00 0.00 47 1011.1
20260904030106 68 37 10.0 12.0 0.00 0.00 0.00 43 1010.9
20260904024608 68 20 7.0 10.0 0.00 0.00 0.00 41 1011.0
20260904023106 69 342 10.0 11.0 0.00 0.00 0.00 40 1010.8
20260904021602 69 336 6.0 9.0 0.00 0.00 0.00 39 1010.8
20260904020105 74 313 5.0 9.0 0.00 0.00 0.00 33 1010.9
20260904014608 75 298 6.0 8.0 0.00 0.00 0.00 32 1010.8
20260904013105 75 279 5.0 8.0 0.00 0.00 0.00 33 1010.7
20260904011614 76 290 5.0 8.0 0.00 0.00 0.00 33 1010.7
20260904010113 78 286 4.0 8.0 0.00 0.00 0.00 32 1010.5
20260904004603 80 286 5.0 10.0 0.00 0.00 0.00 32 1010.2
20260904003102 80 297 5.0 10.0 0.00 0.00 0.00 31 1010.3
20260904001608 81 267 8.0 18.0 0.00 0.00 0.00 31 1010.1
20260904000109 81 0 4.0 9.0 0.00 0.00 0.00 33 1010.0
20260903234604 81 286 6.0 10.0 0.00 0.00 0.00 34 1009.7
20260903233107 82 288 9.0 14.0 0.00 0.00 0.00 34 1009.5
20260903231608 82 292 10.0 18.0 0.00 0.00 0.00 32 1009.5
20260903230108 82 295 8.0 13.0 0.00 0.00 0.00 34 1009.4
20260903224608 81 273 11.0 23.0 0.00 0.00 0.00 31 1009.2
20260903223107 82 250 5.0 10.0 0.00 0.00 0.00 32 1008.9
20260903221619 82 304 7.0 14.0 0.00 0.00 0.00 30 1008.9
20260903220124 82 248 6.0 12.0 0.00 0.00 0.00 29 1008.8
20260903214608 83 282 11.0 20.0 0.00 0.00 0.00 29 1008.6
20260903213106 83 327 3.0 15.0 0.00 0.00 0.00 28 1008.8
20260903211616 83 285 10.0 16.0 0.00 0.00 0.00 28 1008.6
20260903210111 82 40 8.0 13.0 0.00 0.00 0.00 29 1008.6
20260903204607 81 37 8.0 14.0 0.00 0.00 0.00 29 1008.7
20260903203133 82 340 7.0 15.0 0.00 0.00 0.00 28 1008.7
20260903201609 82 0 0.0 8.0 0.00 0.00 0.00 29 1008.8
20260903200108 80 0 5.0 12.0 0.00 0.00 0.00 30 1008.8
20260903194605 80 325 7.0 15.0 0.00 0.00 0.00 30 1008.7
20260903193113 81 294 6.0 10.0 0.00 0.00 0.00 31 1008.6
20260903191605 80 227 1.0 10.0 0.00 0.00 0.00 37 1008.6
20260903190107 80 68 4.0 12.0 0.00 0.00 0.00 35 1008.6
20260903184605 80 167 0.0 7.0 0.00 0.00 0.00 41 1008.5
20260903183106 79 338 1.0 6.0 0.00 0.00 0.00 45 1008.4
20260903181609 78 150 0.0 2.0 0.00 0.00 0.00 49 1008.5
20260903180112 76 0 0.0 4.0 0.00 0.00 0.00 54 1008.8
20260903174606 74 178 0.0 7.0 0.00 0.00 0.00 60 1009.1
20260903173106 72 166 0.0 5.0 0.00 0.00 0.00 64 1009.2
20260903171615 71 0 0.0 6.0 0.00 0.00 0.00 66 1009.2
20260903170107 71 0 0.0 8.0 0.00 0.00 0.00 65 1009.2
20260903164640 71 222 1.0 11.0 0.00 0.00 0.00 64 1009.2
20260903163104 69 166 1.0 12.0 0.00 0.00 0.00 68 1009.3
20260903161608 68 180 9.0 15.0 0.00 0.00 0.00 70 1009.2
20260903160113 66 167 2.0 8.0 0.00 0.00 0.00 72 1009.3
20260903154608 66 163 2.0 6.0 0.00 0.00 0.00 74 1009.3
20260903153108 64 96 7.0 13.0 0.00 0.00 0.00 74 1009.1